Location: Kouchibouguac National Park
(46.8081°N, 64.9088°W)
Time: 23:48:44
(UTC-03:00)

Daily predictions for brighter satellites

Satellite Brightness Start Highest point End
(mag) Time Altitude Azimuth Time Altitude Azimuth Time Altitude Azimuth
MTI 4.3 18:47:29 10° NNE 18:50:30 36° E 18:53:30 10° SSE
SL-24 R/B - RUBIN 2 3.7 18:48:04 10° NW 18:53:06 83° NE 18:57:36 10° SE
Cosmos 1726 4.0 18:53:14 10° E 18:54:14 11° E 18:55:13 10° ENE
Cosmos 1328 4.4 18:51:50 10° NNW 18:55:46 63° W 18:59:40 10° S
Meteor 1-28 Rocket 3.3 18:52:19 10° NNE 18:56:05 58° E 18:59:48 10° S
SL-16 R/B 3.6 18:51:43 10° NW 18:57:06 45° WSW 19:02:27 10° S
Lacrosse 5 rocket 3.0 18:54:12 10° W 18:58:06 28° NNW 19:01:49 10° NE
Cosmos 1484 Rocket 3.1 18:54:24 10° S 18:58:06 67° W 19:01:49 10° NNW
METEOR-M 4.2 18:54:50 10° SSE 19:00:03 57° ENE 19:05:17 10° N
RESURS DK-1 2.3 18:56:23 10° NNW 19:00:33 85° ENE 19:04:40 10° SSE
Meteor 2-14 Rocket 4.5 18:55:12 10° S 19:01:18 88° E 19:07:25 10° N
Cosmos 2151 3.0 18:57:47 10° N 19:02:03 63° ENE 19:06:16 10° SSE
Cosmos 1703 3.2 18:58:46 10° N 19:02:41 65° ENE 19:06:34 10° SSE
Aureole 1 Rocket 3.8 18:57:18 10° SSW 19:03:29 77° WNW 19:08:08 10° NNE
Cosmos-2242 3.7 19:00:34 10° SSW 19:04:45 58° WNW 19:08:58 10° N
Gbstr 26 Del rocket 3.5 19:00:54 10° WNW 19:05:37 70° NNE 19:11:29 10° ESE
Meteor 2-16 Rocket 4.5 19:00:01 10° S 19:06:07 83° E 19:12:17 10° N
Cosmos 2237 4.2 19:00:33 10° NNW 19:06:17 66° ENE 19:11:57 10° SE
YAOGAN 1 2.5 19:02:00 10° SSE 19:06:19 85° ENE 19:10:41 10° NNW
Cosmos 2218 Rocket 4.0 19:01:52 10° S 19:08:00 89° E 19:14:12 10° N
MONITOR-E 4.2 19:07:31 10° SSE 19:10:31 54° ENE 19:13:33 10° N
Cosmos 1420 Rocket 4.0 19:07:31 10° NNW 19:12:50 64° ENE 19:18:05 10° SSE
Cosmos 2237 Rocket 3.4 19:09:02 10° N 19:13:31 23° NE 19:17:22 12° E
Cosmos 1727 Rocket 4.1 19:07:29 10° N 19:13:54 85° E 19:20:14 10° S
BREEZE-M DEB (TANK) 2.2 19:12:26 10° SW 19:14:36 37° SSE 19:15:52 17° E
Cosmos 2058 2.9 19:10:42 10° N 19:14:55 86° E 19:19:04 10° S
Cosmos 1908 3.7 19:11:23 10° SSE 19:15:01 39° E 19:18:41 10° NNE
GENESIS II 4.3 19:11:22 10° SSW 19:15:16 58° ESE 19:19:11 10° NE
APEX 4.0 19:13:32 10° SSE 19:15:52 20° ESE 19:17:05 16° ENE
Cosmos 158 Rocket 4.4 19:13:02 10° S 19:17:41 38° ESE 19:22:29 10° NE
Cosmos 44 4.0 19:14:52 10° S 19:18:33 27° ESE 19:21:43 12° ENE
Abrixas rocket 2.4 19:17:08 10° W 19:20:25 65° N 19:22:48 17° ENE
Cosmos 1626 3.0 19:19:08 10° NNW 19:22:48 53° W 19:26:26 10° S
GRACE-2 3.7 19:20:46 10° SSE 19:23:17 52° E 19:25:48 10° N
SL-16 R/B 3.9 19:21:02 10° N 19:24:10 15° NE 19:26:22 12° ENE
Thor Agena Rocket 4.3 19:19:53 10° NE 19:24:15 28° E 19:28:32 10° SSE
H-2A R/B 3.8 19:21:22 10° SE 19:24:37 26° ENE 19:27:55 10° N
GP-B 3.3 19:20:37 10° N 19:25:04 79° W 19:29:30 10° S
Aureole 2 4.2 19:22:11 10° NNW 19:25:14 85° WSW 19:28:38 10° SSE
Cosmos 1400 Rocket 3.8 19:22:11 10° NNW 19:26:08 51° W 19:29:59 10° S
GRACE-1 3.5 19:24:42 10° S 19:27:15 64° E 19:29:49 10° N
Centaur D AC-29 4.2 19:21:51 10° SW 19:28:58 16° SSW 19:32:34 10° SSE
SKYMED 2 3.5 19:24:40 10° NNE 19:29:01 73° ESE 19:33:21 10° S
MOS 1 4.5 19:24:40 10° SSE 19:30:20 80° WSW 19:36:04 10° NNW
BREEZE-M DEB (TANK) 3.7 19:19:34 10° W 19:32:59 83° S 19:36:08 19° E
Cosmos 2360 Rocket 3.1 19:30:22 10° NW 19:35:52 53° WSW 19:41:21 10° S
SL-8 R/B 3.7 19:31:28 10° WSW 19:36:16 72° SSE 19:39:31 21° ENE
Cosmos 2221 2.5 19:32:28 10° S 19:36:43 58° E 19:41:01 10° NNE
Cosmos 1980 4.4 19:32:37 10° NNW 19:37:42 33° NE 19:40:53 19° ESE
Cosmos 921 Rocket 3.6 19:36:22 10° NNW 19:40:47 62° WSW 19:45:05 10° S
COSMOS 2428 2.7 19:37:07 10° NNW 19:42:51 84° ENE 19:48:32 10° SSE
USA 267 4.5 19:41:26 17° ESE 19:42:56 19° ESE 19:47:19 10° SSE
Cosmos 1842 Rocket 4.3 19:38:46 10° SSW 19:43:09 56° WNW 19:47:33 10° N
Cosmos 2084 3.6 19:40:56 10° NNW 19:44:33 41° NE 19:46:00 28° E
CZ-4 R/B 3.9 19:41:08 10° SSW 19:44:42 27° W 19:48:15 10° NW
Cosmos 1300 3.6 19:41:32 10° SSE 19:49:00 - NNE 19:44:42 27° E
ATLAS 5 CENTAUR R/B 4.3 19:43:01 10° NNW 19:45:47 14° N 19:48:42 10° NNE
Cosmos 2333 Rocket 2.4 19:40:19 10° NNW 19:45:55 51° ENE 19:50:25 16° SE
Cosmos 44 Rocket 3.4 19:41:45 10° SSW 19:46:16 49° ESE 19:49:27 19° NE
FREGAT/IRIS 2.8 19:47:06 33° ESE 19:47:59 44° ENE 19:50:52 10° N
HJ-1C 4.1 19:49:56 32° ENE 19:49:59 32° ENE 19:53:05 10° N
Cosmos 2219 3.4 19:46:35 10° S 19:52:07 51° ESE 19:57:40 10° NE
CZ-4C R/B 2.4 19:47:40 10° S 19:52:38 46° ESE 19:56:39 18° NE
DMSP B5D1-3 4.4 19:52:40 10° NNE 19:57:50 83° ESE 20:02:59 10° SSW
FENGYUN 3A 3.8 19:54:03 10° S 19:59:27 77° WSW 20:04:54 10° NNW
Cosmos 1269 Rocket 4.0 19:54:26 10° S 19:59:38 63° ESE 20:04:53 10° NNE
NOSS 0 Rocket 3.9 20:00:26 10° NNW 20:06:37 66° ENE 20:10:37 22° SE
Resurs 01 Rocket 2.5 20:09:57 31° NE 20:09:57 31° NE 20:13:15 10° N
FengYun 1-2 T 4.1 20:05:07 10° SSE 20:10:36 82° ENE 20:16:07 10° NNW
COSMO-SKYMED 1 4.1 20:12:59 10° N 20:17:00 37° WNW 20:20:59 10° SW
Aureole 2 Rocket 3.0 20:14:19 10° NNW 20:18:11 69° WSW 20:20:31 24° S
Cosmos 1535 Rocket 4.3 20:12:11 10° S 20:18:18 84° E 20:24:27 10° N
Sich 1 2.9 20:15:29 10° N 20:19:52 90° NNW 20:23:42 14° S
Cosmos 2098 Rocket 3.6 20:15:33 10° SSW 20:20:13 77° W 20:26:15 10° N
USA 234 3.9 20:17:52 28° ENE 20:20:44 43° NNE 20:26:51 10° NW
Meteor 2-10 3.8 20:17:22 10° S 20:22:21 68° E 20:27:29 10° NNE
Spot 2 Rocket 3.9 20:23:18 41° ENE 20:23:18 41° ENE 20:27:52 10° N
Cosmos 2219 Rocket 2.3 20:18:22 10° NNW 20:24:00 76° WSW 20:28:19 17° SSE
MOS 1-B Rocket 3.9 20:22:17 29° SE 20:25:12 63° ENE 20:31:22 10° N
ALOS 3.7 20:21:18 10° SSW 20:25:40 39° W 20:30:04 10° NNW
USA 32 4.1 20:22:37 10° N 20:27:46 52° E 20:28:03 51° E
Cosmos 1726 2.7 20:25:22 10° SSW 20:29:01 56° WNW 20:32:40 10° N
Cosmos 1110 Rocket 3.9 20:24:13 10° NNW 20:29:34 87° ENE 20:31:54 35° SSE
Iridium 4 Rocket 4.4 20:24:52 10° SSW 20:30:23 56° W 20:36:13 10° N
SJ-6B 3.1 20:35:42 51° SSW 20:36:22 62° WSW 20:40:05 10° NNW
Lacrosse 5 rocket 3.2 20:35:08 10° NW 20:38:25 21° N 20:38:40 20° N
Cosmos 1666 Rocket 4.1 20:36:05 10° NNW 20:40:22 56° W 20:43:26 18° SSW
BREEZE-M DEB (TANK) 3.7 20:30:17 10° WNW 20:46:50 71° SSW 20:48:19 50° SSE
Cosmos 1633 Rocket 3.5 20:42:33 10° NNW 20:46:55 59° W 20:48:39 34° SSW
Cosmos 1934 Rocket 4.3 20:44:35 10° SSW 20:50:55 68° W 20:57:17 10° N
Envisat 3.0 20:58:34 70° N 20:58:34 70° N 21:03:06 10° NNW
Cosmos 2237 Rocket 2.3 20:52:30 10° NNW 20:58:13 76° WSW 20:59:13 60° S
Cosmos 44 4.1 20:55:28 10° WSW 20:59:34 40° NW 21:00:11 38° NNW
Cosmos 2227 Rocket 3.5 21:02:23 10° SSW 21:04:48 27° SSW 21:04:48 27° SSW
SL-16 R/B 2.7 21:03:52 10° NNW 21:08:15 49° N 21:08:15 49° N
Meteor 2-3 Rocket 3.8 21:09:42 10° NNW 21:15:18 76° WNW 21:15:18 76° WNW
Cosmos 1980 4.5 21:16:34 10° NW 21:21:58 46° WSW 21:22:46 43° SW
USA 267 3.8 21:28:50 45° SSW 21:28:50 45° SSW 21:33:16 10° SW
Cosmos 2333 Rocket 3.9 21:25:03 10° NW 21:29:54 29° WSW 21:32:29 21° SW
ATLAS 5 CENTAUR R/B 4.0 21:28:03 10° NNW 21:31:01 21° N 21:31:01 21° N
CZ-4C R/B 3.4 21:36:07 10° WSW 21:41:15 40° NW 21:41:54 39° NNW
Resurs 01 Rocket 3.9 21:47:33 22° WNW 21:47:33 22° WNW 21:49:38 10° NW
USA 234 3.9 22:05:13 51° NW 22:05:13 51° NW 22:09:57 10° NW
